DW7995 Weather Reports


Display with metric or nautical units.
time (UTC)temp
F
wind
direction
speed
MPH
gust
MPH
rain 1hr
in
rain 24hr
in
rain mn
in
humidity
%
barometer
mb
20240530011036 77 84 4.0 11.0 0.00 0.00 0.00 48 1020.4
20240530010540 77 60 4.0 11.0 0.00 0.00 0.00 47 1020.4
20240530010051 77 105 4.0 8.0 0.00 0.00 0.00 47 1020.4
20240530005539 78 24 4.0 10.0 0.00 0.00 0.00 46 1020.4
20240530005043 78 72 5.0 10.0 0.00 0.00 0.00 46 1020.4
20240530004543 78 96 4.0 10.0 0.00 0.00 0.00 46 1020.4
20240530004042 78 57 5.0 10.0 0.00 0.00 0.00 46 1020.4
20240530003539 78 68 3.0 8.0 0.00 0.00 0.00 46 1020.5
20240530003045 78 49 3.0 7.0 0.00 0.00 0.00 47 1020.5
20240530002539 78 70 2.0 8.0 0.00 0.00 0.00 47 1020.4
20240530002038 78 93 2.0 10.0 0.00 0.00 0.00 46 1020.4
20240530001543 79 58 4.0 10.0 0.00 0.00 0.00 46 1020.4
20240530001042 79 61 5.0 9.0 0.00 0.00 0.00 46 1020.5
20240530000536 80 45 3.0 8.0 0.00 0.00 0.00 46 1020.4
20240530000050 79 69 2.0 9.0 0.00 0.00 0.00 45 1020.6
20240529235540 79 58 3.0 9.0 0.00 0.00 0.00 45 1020.3
20240529235039 80 56 4.0 11.0 0.00 0.00 0.00 44 1020.2
20240529234553 80 78 3.0 11.0 0.00 0.00 0.00 44 1020.4
20240529234038 81 59 1.0 6.0 0.00 0.00 0.00 44 1020.4
20240529233546 82 65 2.0 7.0 0.00 0.00 0.00 42 1020.5
20240529233045 82 17 3.0 8.0 0.00 0.00 0.00 43 1020.7
20240529232539 82 77 1.0 10.0 0.00 0.00 0.00 43 1020.7
20240529232039 82 286 5.0 10.0 0.00 0.00 0.00 43 1020.7
20240529231540 82 62 3.0 7.0 0.00 0.00 0.00 44 1020.7
20240529231039 82 60 2.0 7.0 0.00 0.00 0.00 43 1020.8
20240529230538 82 288 2.0 10.0 0.00 0.00 0.00 44 1020.8
20240529230049 82 84 5.0 10.0 0.00 0.00 0.00 44 1020.8
20240529225539 82 3 2.0 9.0 0.00 0.00 0.00 44 1020.8
20240529225041 82 63 4.0 10.0 0.00 0.00 0.00 44 1020.8
20240529224542 83 65 2.0 10.0 0.00 0.00 0.00 43 1020.8
20240529224038 83 77 2.0 10.0 0.00 0.00 0.00 43 1020.8
20240529223538 82 53 3.0 5.0 0.00 0.00 0.00 43 1021.0
20240529223129 82 53 2.0 7.0 0.00 0.00 0.00 44 1021.1
20240529222538 81 329 3.0 9.0 0.00 0.00 0.00 45 1021.2
20240529222038 79 57 2.0 13.0 0.00 0.00 0.00 48 1021.1
20240529221541 80 62 6.0 13.0 0.00 0.00 0.00 46 1021.2
20240529221038 81 54 4.0 10.0 0.00 0.00 0.00 45 1021.3
20240529220540 80 63 4.0 11.0 0.00 0.00 0.00 46 1021.4
20240529220040 79 63 4.0 11.0 0.00 0.00 0.00 47 1021.5
20240529215542 79 63 5.0 10.0 0.00 0.00 0.00 47 1021.5
20240529215040 79 62 3.0 11.0 0.00 0.00 0.00 47 1021.6
20240529214539 79 12 4.0 12.0 0.00 0.00 0.00 46 1021.6
20240529214038 79 53 6.0 12.0 0.00 0.00 0.00 46 1021.6
20240529213538 81 51 5.0 10.0 0.00 0.00 0.00 45 1021.4
20240529213038 81 69 2.0 9.0 0.00 0.00 0.00 44 1021.4
20240529212540 81 41 2.0 9.0 0.00 0.00 0.00 45 1021.5
20240529212039 81 313 3.0 9.0 0.00 0.00 0.00 44 1021.4
20240529211553 82 10 4.0 12.0 0.00 0.00 0.00 43 1021.5
20240529211038 82 68 3.0 12.0 0.00 0.00 0.00 43 1021.5
20240529210537 81 64 3.0 8.0 0.00 0.00 0.00 43 1021.6
20240529210052 81 59 3.0 8.0 0.00 0.00 0.00 44 1021.6
20240529205538 81 67 2.0 8.0 0.00 0.00 0.00 44 1021.7
20240529205038 81 41 5.0 11.0 0.00 0.00 0.00 43 1021.8
20240529204550 81 59 7.0 13.0 0.00 0.00 0.00 43 1021.8
20240529204038 83 34 6.0 13.0 0.00 0.00 0.00 41 1021.8
20240529203539 84 50 4.0 14.0 0.00 0.00 0.00 40 1021.8
20240529203038 85 63 6.0 14.0 0.00 0.00 0.00 40 1021.8
20240529202539 86 54 6.0 11.0 0.00 0.00 0.00 38 1021.9
20240529202038 88 90 4.0 9.0 0.00 0.00 0.00 24 1021.9
20240529201544 88 303 2.0 24.0 0.00 0.00 0.00 23 1022.0
20240529201038 87 212 4.0 24.0 0.00 0.00 0.00 22 1022.0
20240529200536 87 190 12.0 24.0 0.00 0.00 0.00 30 1021.8
20240529200040 88 236 4.0 11.0 0.00 0.00 0.00 20 1022.0
20240529195542 86 213 4.0 10.0 0.00 0.00 0.00 22 1022.0
20240529195038 86 10 3.0 11.0 0.00 0.00 0.00 22 1022.1
20240529194544 86 155 6.0 11.0 0.00 0.00 0.00 23 1022.3
20240529194038 86 84 5.0 10.0 0.00 0.00 0.00 24 1022.3
20240529193536 85 354 3.0 10.0 0.00 0.00 0.00 26 1022.3
20240529193039 86 147 4.0 10.0 0.00 0.00 0.00 26 1022.5
20240529192538 86 333 2.0 6.0 0.00 0.00 0.00 28 1022.4
20240529192039 85 257 3.0 13.0 0.00 0.00 0.00 28 1022.5
20240529191548 84 0 5.0 13.0 0.00 0.00 0.00 29 1022.7
20240529191038 84 311 3.0 11.0 0.00 0.00 0.00 29 1022.7
20240529190538 84 245 3.0 13.0 0.00 0.00 0.00 30 1022.8
20240529190044 84 119 5.0 13.0 0.00 0.00 0.00 30 1022.8
20240529185539 84 251 2.0 10.0 0.00 0.00 0.00 32 1022.8
20240529185038 83 281 3.0 12.0 0.00 0.00 0.00 33 1022.9
20240529184549 83 97 7.0 12.0 0.00 0.00 0.00 34 1023.0
20240529184039 83 233 7.0 11.0 0.00 0.00 0.00 33 1022.9
20240529183539 84 228 2.0 6.0 0.00 0.00 0.00 29 1023.0
20240529183044 84 235 2.0 6.0 0.00 0.00 0.00 32 1023.1
20240529182537 84 349 3.0 6.0 0.00 0.00 0.00 31 1023.1
20240529182039 84 347 3.0 6.0 0.00 0.00 0.00 31 1023.2
20240529181540 83 279 3.0 8.0 0.00 0.00 0.00 30 1023.3
20240529181036 83 313 3.0 8.0 0.00 0.00 0.00 32 1023.4
20240529180541 82 342 1.0 11.0 0.00 0.00 0.00 31 1023.3
20240529180042 82 224 2.0 11.0 0.00 0.00 0.00 32 1023.4
20240529175538 82 107 5.0 11.0 0.00 0.00 0.00 31 1023.5
20240529175042 81 68 3.0 9.0 0.00 0.00 0.00 32 1023.6
20240529174543 82 0 2.0 9.0 0.00 0.00 0.00 31 1023.7
20240529174038 81 319 1.0 9.0 0.00 0.00 0.00 32 1023.9
20240529173538 80 257 4.0 9.0 0.00 0.00 0.00 33 1023.9
20240529173044 80 56 4.0 9.0 0.00 0.00 0.00 35 1023.9
20240529172538 80 54 2.0 9.0 0.00 0.00 0.00 36 1024.0
20240529172038 80 303 3.0 9.0 0.00 0.00 0.00 35 1024.1
20240529171545 80 246 5.0 9.0 0.00 0.00 0.00 36 1024.1
20240529171038 80 330 3.0 6.0 0.00 0.00 0.00 37 1024.1
20240529170538 80 294 2.0 6.0 0.00 0.00 0.00 38 1024.2
20240529170043 79 61 3.0 8.0 0.00 0.00 0.00 40 1024.2
20240529165538 78 86 2.0 8.0 0.00 0.00 0.00 40 1024.2
20240529165038 79 55 1.0 9.0 0.00 0.00 0.00 41 1024.3
20240529164554 78 46 2.0 9.0 0.00 0.00 0.00 42 1024.3
20240529164038 78 228 1.0 6.0 0.00 0.00 0.00 44 1024.3
20240529163538 77 351 2.0 7.0 0.00 0.00 0.00 45 1024.4
20240529163043 77 335 2.0 7.0 0.00 0.00 0.00 45 1024.5
20240529162539 78 349 3.0 7.0 0.00 0.00 0.00 46 1024.6
20240529162041 77 0 4.0 8.0 0.00 0.00 0.00 46 1024.7
20240529161544 77 283 4.0 8.0 0.00 0.00 0.00 46 1024.7
20240529161037 77 338 2.0 7.0 0.00 0.00 0.00 46 1024.7
20240529160538 76 75 2.0 7.0 0.00 0.00 0.00 49 1024.8
20240529160044 76 280 1.0 6.0 0.00 0.00 0.00 49 1024.7
20240529155537 76 273 1.0 6.0 0.00 0.00 0.00 49 1024.7
20240529155038 76 347 2.0 9.0 0.00 0.00 0.00 50 1024.8
20240529154554 76 300 1.0 9.0 0.00 0.00 0.00 51 1024.9
20240529154038 76 303 3.0 9.0 0.00 0.00 0.00 49 1025.0
20240529153538 76 0 1.0 6.0 0.00 0.00 0.00 48 1025.0
20240529153044 75 330 2.0 7.0 0.00 0.00 0.00 48 1024.8
20240529152539 75 0 1.0 7.0 0.00 0.00 0.00 51 1025.0
20240529152038 75 289 3.0 6.0 0.00 0.00 0.00 52 1024.9
20240529151545 74 325 1.0 6.0 0.00 0.00 0.00 54 1024.9
20240529151038 74 152 2.0 6.0 0.00 0.00 0.00 56 1024.9
20240529150538 74 0 1.0 5.0 0.00 0.00 0.00 54 1025.0
20240529150105 74 117 1.0 5.0 0.00 0.00 0.00 53 1024.9
20240529145538 73 98 1.0 7.0 0.00 0.00 0.00 56 1024.8
20240529145038 72 89 3.0 7.0 0.00 0.00 0.00 60 1024.8
20240529144541 72 118 1.0 4.0 0.00 0.00 0.00 56 1024.8
20240529144042 72 60 1.0 4.0 0.00 0.00 0.00 60 1024.7
20240529143541 71 0 1.0 6.0 0.00 0.00 0.00 61 1024.6
20240529143049 70 54 3.0 6.0 0.00 0.00 0.00 62 1024.6
20240529142543 70 45 1.0 6.0 0.00 0.00 0.00 65 1024.6
20240529142042 69 104 3.0 6.0 0.00 0.00 0.00 64 1024.5
20240529141549 69 148 1.0 4.0 0.00 0.00 0.00 66 1024.4
20240529141037 69 97 2.0 3.0 0.00 0.00 0.00 66 1024.4
20240529140537 68 122 0.0 3.0 0.00 0.00 0.00 69 1024.5
20240529140043 68 149 0.0 0.0 0.00 0.00 0.00 70 1024.5
20240529135540 67 0 0.0 0.0 0.00 0.00 0.00 71 1024.5
20240529135040 67 0 0.0 0.0 0.00 0.00 0.00 71 1024.4
20240529134551 66 0 0.0 0.0 0.00 0.00 0.00 74 1024.3
20240529134040 66 0 0.0 4.0 0.00 0.00 0.00 76 1024.4
20240529133540 65 0 0.0 4.0 0.00 0.00 0.00 77 1024.5
20240529133041 64 70 0.0 3.0 0.00 0.00 0.00 78 1024.3
20240529132538 63 0 0.0 5.0 0.00 0.00 0.00 81 1024.2
20240529132040 62 0 0.0 5.0 0.00 0.00 0.00 83 1024.3
20240529131543 62 105 3.0 5.0 0.00 0.00 0.00 83 1024.5
20240529131038 62 70 1.0 3.0 0.00 0.00 0.00 83 1024.6
20240529130544 61 52 0.0 2.0 0.00 0.00 0.00 85 1024.4
20240529130047 60 0 0.0 2.0 0.00 0.00 0.00 87 1024.3
20240529125543 59 71 0.0 2.0 0.00 0.00 0.00 88 1024.5
20240529125039 58 0 0.0 0.0 0.00 0.00 0.00 86 1024.6
20240529124547 58 0 0.0 0.0 0.00 0.00 0.00 88 1024.3
20240529124040 57 0 0.0 0.0 0.00 0.00 0.00 87 1024.3
20240529123540 56 0 0.0 0.0 0.00 0.00 0.00 87 1024.2
20240529123043 56 0 0.0 0.0 0.00 0.00 0.00 88 1024.1
20240529122539 56 0 0.0 0.0 0.00 0.00 0.00 89 1024.1
20240529122040 56 0 0.0 0.0 0.00 0.00 0.00 89 1024.3
20240529121548 56 0 0.0 0.0 0.00 0.00 0.00 88 1024.2
20240529121039 56 0 0.0 0.0 0.00 0.00 0.00 88 1024.0
20240529120543 56 0 0.0 0.0 0.00 0.00 0.00 90 1023.9
20240529120101 56 0 0.0 0.0 0.00 0.00 0.00 89 1023.9
20240529115540 55 0 0.0 0.0 0.00 0.00 0.00 87 1023.9
20240529115040 55 0 0.0 0.0 0.00 0.00 0.00 87 1024.2
20240529114549 55 0 0.0 0.0 0.00 0.00 0.00 85 1023.9
20240529114040 56 0 0.0 0.0 0.00 0.00 0.00 85 1023.8
20240529113539 57 0 0.0 0.0 0.00 0.00 0.00 84 1023.7
20240529113041 57 0 0.0 0.0 0.00 0.00 0.00 83 1023.6
20240529112541 58 0 0.0 1.0 0.00 0.00 0.00 83 1023.5
20240529112040 58 0 0.0 3.0 0.00 0.00 0.00 81 1023.5
20240529111602 59 0 0.0 3.0 0.00 0.00 0.00 85 1023.5
20240529111040 59 130 0.0 3.0 0.00 0.00 0.00 84 1023.5
20240529110540 59 0 0.0 2.0 0.00 0.00 0.00 82 1023.5
20240529110042 59 0 0.0 2.0 0.00 0.00 0.00 80 1023.5
20240529105539 59 0 0.0 1.0 0.00 0.00 0.00 72 1023.4
20240529105040 60 0 0.0 1.0 0.00 0.00 0.00 73 1023.4
20240529104541 61 204 0.0 2.0 0.00 0.00 0.00 72 1023.6
20240529104039 61 0 0.0 3.0 0.00 0.00 0.00 69 1023.5
20240529103540 62 0 0.0 3.0 0.00 0.00 0.00 71 1023.3
20240529103038 62 231 0.0 4.0 0.00 0.00 0.00 69 1023.2
20240529102539 62 233 2.0 9.0 0.00 0.00 0.00 71 1023.1
20240529102040 63 0 1.0 9.0 0.00 0.00 0.00 74 1023.1
20240529101600 62 37 0.0 4.0 0.00 0.00 0.00 72 1023.3
20240529101042 60 0 0.0 4.0 0.00 0.00 0.00 75 1022.9
20240529100540 57 0 1.0 4.0 0.00 0.00 0.00 80 1023.0
20240529100101 56 0 0.0 0.0 0.00 0.00 0.00 75 1022.7
20240529095539 56 0 0.0 0.0 0.00 0.00 0.00 74 1022.4
20240529095039 57 0 0.0 1.0 0.00 0.00 0.00 73 1022.2
20240529094545 57 0 0.0 1.0 0.00 0.00 0.00 75 1022.3
20240529094041 57 0 0.0 1.0 0.00 0.00 0.00 74 1022.4
20240529093538 57 0 0.0 0.0 0.00 0.00 0.00 76 1022.4
20240529093052 57 0 0.0 0.0 0.00 0.00 0.00 74 1022.4
20240529092542 58 0 0.0 0.0 0.00 0.00 0.00 72 1022.6
20240529092038 59 0 0.0 0.0 0.00 0.00 0.00 72 1022.5
20240529091541 59 0 0.0 1.0 0.00 0.00 0.00 72 1022.6
20240529091038 60 0 0.0 1.0 0.00 0.00 0.00 70 1022.6
20240529090542 61 0 0.0 2.0 0.00 0.00 0.00 72 1022.5
20240529090042 61 0 0.0 2.0 0.00 0.00 0.00 73 1022.5
20240529085538 61 0 0.0 0.0 0.00 0.00 0.00 70 1022.6
20240529085037 62 0 0.0 0.0 0.00 0.00 0.00 70 1022.5
20240529084539 62 0 0.0 0.0 0.00 0.00 0.00 71 1022.5
20240529084041 62 0 0.0 0.0 0.00 0.00 0.00 70 1022.5
20240529083538 63 0 0.0 0.0 0.00 0.00 0.00 70 1022.5
20240529083043 63 0 0.0 0.0 0.00 0.00 0.00 71 1022.4
20240529082540 64 0 0.0 0.0 0.00 0.00 0.00 71 1022.4
20240529082039 64 0 0.0 0.0 0.00 0.00 0.00 70 1022.3
20240529081545 64 0 0.0 0.0 0.00 0.00 0.00 69 1022.4
20240529081037 65 0 0.0 3.0 0.00 0.00 0.00 68 1022.4
20240529080538 65 0 0.0 3.0 0.00 0.00 0.00 68 1022.4
20240529080050 66 68 0.0 4.0 0.00 0.00 0.00 68 1022.4
20240529075539 66 0 0.0 4.0 0.00 0.00 0.00 68 1022.4
20240529075038 65 325 0.0 4.0 0.00 0.00 0.00 69 1022.4
20240529074548 65 353 0.0 4.0 0.00 0.00 0.00 68 1022.4
20240529074038 65 0 2.0 6.0 0.00 0.00 0.00 69 1022.4
20240529073539 64 85 1.0 6.0 0.00 0.00 0.00 71 1022.4
20240529073046 62 93 2.0 6.0 0.00 0.00 0.00 75 1022.3
20240529072538 59 0 0.0 0.0 0.00 0.00 0.00 68 1022.4
20240529072039 59 0 0.0 0.0 0.00 0.00 0.00 66 1022.2
20240529071546 59 0 0.0 0.0 0.00 0.00 0.00 70 1022.4
20240529071039 59 0 0.0 0.0 0.00 0.00 0.00 67 1022.3
20240529070537 59 0 0.0 2.0 0.00 0.00 0.00 68 1022.2
20240529070042 59 0 0.0 3.0 0.00 0.00 0.00 68 1022.0
20240529065539 59 195 0.0 5.0 0.00 0.00 0.00 69 1022.2
20240529065039 58 278 0.0 5.0 0.00 0.00 0.00 71 1022.2
20240529064547 57 106 1.0 5.0 0.00 0.00 0.00 69 1022.3
20240529064040 57 0 0.0 0.0 0.00 0.00 0.00 68 1021.9
20240529063539 58 0 0.0 0.0 0.00 0.00 0.00 67 1021.7
20240529063045 58 0 0.0 0.0 0.00 0.00 0.00 69 1021.8
20240529062540 58 0 0.0 0.0 0.00 0.00 0.00 68 1021.7
20240529062040 58 0 0.0 0.0 0.00 0.00 0.00 70 1021.6
20240529061547 58 0 0.0 0.0 0.00 0.00 0.00 69 1021.7
20240529061040 59 0 0.0 0.0 0.00 0.00 0.00 70 1021.8
20240529060540 59 0 0.0 0.0 0.00 0.00 0.00 69 1021.8
20240529060042 59 0 0.0 0.0 0.00 0.00 0.00 68 1021.8
20240529055540 60 0 0.0 0.0 0.00 0.00 0.00 69 1022.0
20240529055040 60 0 0.0 0.0 0.00 0.00 0.00 68 1022.0
20240529054544 61 0 0.0 0.0 0.00 0.00 0.00 68 1022.1
20240529054040 61 0 0.0 0.0 0.00 0.00 0.00 68 1022.0
20240529053540 61 0 0.0 0.0 0.00 0.00 0.00 68 1022.0
20240529053041 61 0 0.0 0.0 0.00 0.00 0.00 67 1021.8
20240529052544 62 0 0.0 0.0 0.00 0.00 0.00 68 1021.9
20240529052039 62 0 0.0 0.0 0.00 0.00 0.00 66 1021.8
20240529051543 62 0 0.0 0.0 0.00 0.00 0.00 67 1021.9
20240529051039 63 0 0.0 0.0 0.00 0.00 0.00 66 1022.0
20240529050540 64 0 0.0 0.0 0.00 0.00 0.00 66 1022.1
20240529050048 64 0 0.0 0.0 0.00 0.00 0.00 67 1022.1
20240529045539 65 0 0.0 0.0 0.00 0.00 0.00 66 1022.1
20240529045040 65 0 0.0 0.0 0.00 0.00 0.00 65 1022.1
20240529044541 66 0 0.0 0.0 0.00 0.00 0.00 63 1022.1
20240529044039 66 0 0.0 2.0 0.00 0.00 0.00 65 1022.0
20240529043539 67 0 0.0 2.0 0.00 0.00 0.00 63 1022.0
20240529043042 68 316 0.0 2.0 0.00 0.00 0.00 64 1022.0
20240529042540 68 0 0.0 1.0 0.00 0.00 0.00 63 1022.0
20240529042040 69 0 0.0 2.0 0.00 0.00 0.00 62 1022.0
20240529041558 69 0 0.0 2.0 0.00 0.00 0.00 62 1021.9
20240529041040 69 0 0.0 4.0 0.00 0.00 0.00 62 1021.9
20240529040540 70 0 0.0 9.0 0.00 0.00 0.00 62 1021.9
20240529040042 70 77 5.0 9.0 0.00 0.00 0.00 62 1021.8
20240529035539 70 123 4.0 7.0 0.00 0.00 0.00 62 1021.7
20240529035056 69 119 0.0 7.0 0.00 0.00 0.00 62 1021.7
20240529035015 70 21 0.0 3.0 0.00 0.00 0.00 62 1021.4
20240529034102 71 130 5.0 12.0 0.00 0.00 0.00 61 1021.3
20240529032736 71 77 4.0 12.0 0.00 0.00 0.00 60 1021.0
20240529031034 73 144 7.0 12.0 0.00 0.00 0.00 62 1020.3
20240529025520 75 85 2.0 14.0 0.00 0.00 0.00 54 1020.4
20240529024140 76 94 7.0 14.0 0.00 0.00 0.00 53 1020.5
20240529023116 81 209 0.0 5.0 0.00 0.00 0.00 24 1019.7
20240529021551 82 0 1.0 10.0 0.00 0.00 0.00 25 1019.5
20240529015525 86 40 5.0 14.0 0.00 0.00 0.00 11 1019.3
20240529014043 87 185 2.0 8.0 0.00 0.00 0.00 13 1019.0
20240529012746 87 217 2.0 8.0 0.00 0.00 0.00 13 1018.9
20240529011444 89 346 1.0 7.0 0.00 0.00 0.00 11 1018.8